KLM588C DNMM-EHAM

Flight info

Callsign KLM588C
Flight time N/A
Altitude 37000
Route BUDSI1Q BUDSI UB731 KIGRA UY333 MIGNI DCT EREBO/N0492F360 UA604 TMS/N0487F370 UZ111 OPRIC/N0481F380 UZ111 IPDAK UM508 KAMER DCT NAFOQ DCT SURJU DCT PADKO DCT MOPEM DCT SIZZA DCT ENORI DCT MEDIL DCT FERDI/N0449F240 Y18 DENUT
Aircraft B77W/H-SDE1E2E3FGHIJ2J3J4J5M1RWXY/LB1D1

Departure

Time 2026-05-08 15:24
Airport Murtala Muhammed International Airport (DNMM)

Arrival

Time N/A
Airport Amsterdam Airport Schiphol (EHAM)
Time Latitude Longitude Altitude Speed Heading
2026-05-08 15:05 6.58000 3.31903 100 ft 0 kts 67°
2026-05-08 15:15 6.57998 3.31897 99 ft 3 kts 67°
2026-05-08 15:15 6.57991 3.31882 99 ft 2 kts 67°
2026-05-08 15:16 6.57986 3.31868 99 ft 2 kts 67°
2026-05-08 15:16 6.57982 3.31859 98 ft 0 kts 67°
2026-05-08 15:16 6.57975 3.31846 98 ft 2 kts 46°
2026-05-08 15:16 6.57963 3.31838 98 ft 2 kts 19°
2026-05-08 15:17 6.57949 3.31835 99 ft 2 kts 356°
2026-05-08 15:17 6.57937 3.31837 100 ft 0 kts 337°
2026-05-08 15:17 6.57932 3.31839 100 ft 0 kts 335°
2026-05-08 15:19 6.57934 3.31839 100 ft 3 kts 335°
2026-05-08 15:19 6.58003 3.31808 95 ft 13 kts 336°
2026-05-08 15:19 6.58083 3.31773 91 ft 11 kts 327°
2026-05-08 15:20 6.58110 3.31703 88 ft 12 kts 254°
2026-05-08 15:20 6.58073 3.31612 85 ft 13 kts 247°
2026-05-08 15:20 6.58067 3.31538 82 ft 9 kts 322°
2026-05-08 15:20 6.58151 3.31525 80 ft 18 kts 359°
2026-05-08 15:21 6.58280 3.31522 77 ft 18 kts 358°
2026-05-08 15:21 6.58408 3.31518 74 ft 18 kts 359°
2026-05-08 15:21 6.58534 3.31519 72 ft 18 kts
2026-05-08 15:21 6.58656 3.31518 72 ft 16 kts 359°
2026-05-08 15:22 6.58762 3.31514 73 ft 13 kts 346°
2026-05-08 15:22 6.58809 3.31458 76 ft 9 kts 279°
2026-05-08 15:22 6.58810 3.31407 78 ft 5 kts 266°
2026-05-08 15:22 6.58797 3.31374 80 ft 7 kts 239°
2026-05-08 15:23 6.58755 3.31332 81 ft 8 kts 212°
2026-05-08 15:23 6.58699 3.31313 80 ft 8 kts 185°
2026-05-08 15:23 6.58520 3.31314 76 ft 58 kts 179°
2026-05-08 15:23 6.57869 3.31324 77 ft 127 kts 179°
2026-05-08 15:24 6.56759 3.31335 132 ft 180 kts 178°
2026-05-08 15:24 6.55475 3.31341 661 ft 190 kts 179°
2026-05-08 15:24 6.54128 3.31333 1426 ft 195 kts 188°
2026-05-08 15:24 6.52825 3.30904 1775 ft 208 kts 211°
2026-05-08 15:25 6.51740 3.29846 2023 ft 227 kts 239°
2026-05-08 15:25 6.51273 3.28301 2354 ft 244 kts 268°
2026-05-08 15:25 6.51407 3.26534 2751 ft 260 kts 281°
2026-05-08 15:25 6.52132 3.24876 3278 ft 269 kts 309°
2026-05-08 15:26 6.53562 3.23656 3879 ft 273 kts 336°
2026-05-08 15:26 6.55390 3.23140 4617 ft 272 kts 353°
2026-05-08 15:26 6.57258 3.22989 5358 ft 272 kts 359°
2026-05-08 15:26 6.59159 3.22904 6080 ft 273 kts
2026-05-08 15:27 6.60759 3.22877 6650 ft 274 kts
2026-05-08 15:27 6.62669 3.22866 7326 ft 275 kts
2026-05-08 15:27 6.64599 3.22831 7971 ft 277 kts
2026-05-08 15:27 6.66528 3.22794 8600 ft 279 kts
2026-05-08 15:28 6.68473 3.22789 9232 ft 280 kts
2026-05-08 15:28 6.70428 3.22747 9898 ft 280 kts
2026-05-08 15:28 6.72407 3.22706 10243 ft 293 kts
2026-05-08 15:28 6.74521 3.22686 10508 ft 310 kts
2026-05-08 15:29 6.76754 3.22651 10776 ft 327 kts
2026-05-08 15:29 6.79070 3.22627 11082 ft 343 kts
2026-05-08 15:29 6.81511 3.22698 11348 ft 355 kts 11°
2026-05-08 15:29 6.84036 3.23036 11640 ft 371 kts 12°
2026-05-08 15:30 6.86640 3.23397 12169 ft 379 kts 12°
2026-05-08 15:30 6.89272 3.23765 12863 ft 383 kts 12°
2026-05-08 15:30 6.91897 3.24131 13539 ft 388 kts 12°
2026-05-08 15:30 6.94603 3.24512 14255 ft 393 kts 12°